Temp
-7 -7 -7 -6 -6 -6 -5 -5 -5 -5 -5 -5 -5 -5 -5 -5 -5 -4 -4 -4 -4 -5 -5 -5 -5 -5 -5 -5 -5 -6 -6 -7 -9 -8 -8 -8 -8 -7 -8 -7 -6 -7 -7 -6 -7 -6 -6
-8 -8 -7 -7 -7 -6 -6 -6 -5 -5 -5 -5 -6 -5 -5 -5 -5 -5 -4 -4 -5 -5 -5 -5 -5 -5 -5 -5 -5 -6 -7 -8 -9 -8 -8 -8 -8 -7 -7 -6 -6 -7 -7 -6 -7 -7 -6
-8 -8 -8 -7 -7 -7 -6 -6 -6 -6 -5 -5 -5 -6 -5 -5 -5 -5 -4 -4 -5 -5 -5 -5 -5 -5 -5 -5 -5 -6 -7 -8 -9 -9 -9 -8 -8 -7 -7 -7 -6 -7 -7 -7 -7 -7 -7
-9 -8 -8 -8 -8 -7 -7 -7 -6 -6 -6 -5 -5 -6 -6 -5 -5 -5 -5 -5 -5 -5 -5 -5 -5 -5 -5 -5 -5 -6 -8 -8 -9 -8 -8 -8 -8 -8 -7 -7 -6 -6 -7 -7 -7 -7 -8
-9 -9 -9 -8 -8 -8 -7 -7 -7 -6 -6 -6 -6 -6 -6 -5 -5 -5 -5 -5 -5 -5 -5 -5 -5 -5 -5 -5 -5 -6 -7 -8 -9 -8 -8 -8 -8 -8 -8 -7 -7 -7 -7 -7 -8 -8 -8
-9 -9 -9 -9 -8 -8 -8 -7 -7 -7 -6 -6 -6 -6 -5 -5 -5 -5 -5 -5 -5 -5 -5 -5 -5 -5 -5 -5 -5 -5 -6 -7 -8 -8 -9 -9 -8 -8 -8 -7 -7 -7 -7 -7 -8 -8 -8
-10 -10 -9 -9 -9 -9 -8 -8 -7 -7 -7 -7 -6 -6 -6 -5 -5 -5 -5 -4 -5 -5 -6 -5 -5 -5 -5 -5 -5 -6 -6 -6 -8 -8 -9 -9 -8 -8 -8 -8 -6 -7 -7 -8 -7 -8 -8
-10 -10 -10 -10 -9 -9 -9 -8 -8 -7 -7 -7 -7 -6 -6 -6 -5 -5 -5 -5 -5 -6 -6 -5 -5 -5 -5 -5 -5 -6 -6 -6 -7 -8 -9 -9 -9 -8 -9 -8 -7 -7 -7 -8 -8 -8 -8
-10 -10 -10 -10 -10 -10 -9 -9 -8 -8 -8 -7 -7 -7 -6 -6 -6 -5 -5 -6 -6 -6 -6 -6 -5 -5 -5 -5 -5 -5 -6 -7 -7 -8 -8 -8 -9 -9 -9 -8 -8 -8 -8 -8 -8 -8 -8
-11 -10 -10 -10 -10 -10 -10 -10 -9 -9 -8 -8 -8 -7 -7 -6 -6 -6 -6 -6 -6 -6 -6 -6 -5 -5 -6 -6 -6 -5 -6 -7 -8 -8 -8 -8 -9 -9 -8 -8 -9 -8 -8 -8 -8 -8 -8
-11 -11 -11 -11 -11 -11 -10 -10 -10 -9 -9 -9 -8 -8 -7 -7 -7 -7 -6 -6 -6 -6 -6 -6 -5 -5 -6 -5 -5 -5 -6 -7 -7 -8 -8 -8 -9 -8 -8 -8 -8 -9 -9 -9 -8 -8 -8
-12 -12 -12 -12 -12 -11 -11 -11 -10 -10 -9 -9 -9 -9 -8 -8 -7 -7 -7 -7 -6 -7 -6 -6 -6 -6 -6 -6 -6 -5 -5 -6 -8 -8 -8 -8 -9 -8 -8 -9 -8 -8 -8 -8 -8 -8 -8
-12 -12 -12 -12 -12 -12 -11 -11 -11 -10 -10 -10 -9 -9 -9 -8 -8 -8 -7 -7 -7 -7 -7 -6 -6 -6 -6 -6 -5 -5 -5 -6 -7 -8 -9 -8 -9 -9 -9 -8 -8 -9 -8 -9 -8 -8 -8
-13 -13 -12 -12 -12 -12 -12 -11 -11 -10 -10 -10 -10 -10 -9 -9 -9 -9 -8 -8 -8 -7 -7 -7 -7 -6 -6 -6 -6 -6 -6 -6 -8 -8 -9 -8 -9 -9 -9 -8 -8 -8 -9 -9 -8 -8 -8
-13 -13 -13 -12 -12 -12 -12 -11 -11 -11 -10 -10 -10 -10 -9 -9 -9 -9 -9 -9 -8 -8 -8 -7 -7 -7 -7 -6 -6 -6 -7 -6 -7 -8 -8 -8 -8 -8 -9 -9 -9 -9 -8 -8 -8 -8 -8
-13 -13 -13 -13 -13 -12 -12 -11 -11 -11 -11 -10 -10 -10 -10 -9 -9 -9 -9 -9 -9 -9 -9 -9 -8 -7 -7 -6 -6 -6 -7 -7 -8 -8 -9 -8 -8 -9 -9 -9 -8 -8 -8 -8 -8 -8 -8
-12 -12 -12 -12 -12 -12 -12 -11 -11 -11 -11 -10 -10 -10 -10 -10 -9 -9 -9 -9 -10 -10 -10 -9 -8 -7 -7 -7 -7 -7 -7 -7 -8 -8 -9 -8 -9 -9 -9 -9 -8 -8 -8 -8 -9 -8 -8
-12 -12 -12 -12 -12 -12 -12 -12 -12 -11 -11 -10 -10 -10 -10 -9 -9 -9 -10 -10 -10 -10 -10 -9 -9 -8 -8 -8 -8 -7 -7 -7 -8 -8 -8 -9 -9 -9 -9 -9 -9 -9 -8 -8 -8 -8 -8
-11 -11 -11 -11 -12 -12 -12 -12 -12 -11 -11 -11 -11 -10 -10 -10 -10 -10 -10 -10 -10 -10 -10 -10 -9 -8 -8 -8 -8 -8 -8 -8 -8 -8 -8 -9 -9 -9 -9 -9 -9 -9 -9 -9 -9 -9 -9
-11 -11 -11 -11 -11 -11 -12 -11 -11 -11 -11 -11 -11 -11 -11 -10 -10 -10 -10 -10 -10 -11 -10 -10 -10 -9 -8 -8 -9 -9 -9 -9 -9 -9 -9 -9 -9 -9 -9 -8 -9 -8 -8 -8 -9 -8 -9
-11 -11 -11 -11 -11 -12 -12 -12 -12 -11 -11 -11 -11 -11 -11 -11 -10 -10 -10 -10 -10 -11 -10 -9 -10 -9 -8 -9 -9 -9 -9 -9 -9 -9 -9 -9 -9 -9 -9 -8 -8 -8 -8 -8 -8 -8 -8
-11 -11 -12 -12 -12 -12 -12 -12 -12 -12 -12 -12 -12 -12 -11 -11 -11 -11 -10 -11 -10 -10 -10 -10 -10 -10 -10 -9 -9 -9 -9 -9 -9 -9 -9 -9 -9 -9 -9 -9 -9 -9 -8 -8 -8 -8 -8
-12 -12 -12 -12 -12 -12 -12 -12 -12 -12 -12 -12 -12 -12 -12 -11 -11 -11 -11 -11 -10 -10 -11 -10 -10 -10 -10 -10 -9 -9 -9 -9 -9 -9 -9 -9 -9 -9 -9 -9 -9 -9 -8 -8 -8 -7 -8
-12 -12 -12 -12 -12 -12 -12 -12 -12 -12 -12 -13 -12 -12 -12 -12 -11 -11 -11 -11 -11 -11 -10 -10 -10 -10 -10 -10 -10 -9 -9 -9 -9 -9 -9 -9 -9 -9 -9 -9 -9 -9 -9 -8 -8 -8 -8
-12 -12 -12 -12 -12 -12 -12 -12 -12 -12 -13 -13 -13 -12 -12 -12 -12 -12 -11 -12 -11 -11 -10 -10 -11 -10 -10 -10 -10 -10 -9 -9 -9 -9 -9 -9 -9 -9 -9 -9 -9 -9 -9 -9 -9 -9 -8
-12 -12 -12 -12 -12 -12 -11 -11 -12 -12 -13 -13 -13 -12 -12 -12 -12 -12 -12 -12 -12 -11 -11 -11 -12 -11 -10 -10 -10 -10 -10 -10 -10 -10 -9 -9 -9 -9 -9 -9 -9 -9 -9 -9 -9 -8 -9
-13 -12 -12 -12 -12 -12 -12 -11 -11 -12 -13 -12 -12 -12 -12 -12 -13 -13 -13 -12 -12 -13 -12 -12 -11 -12 -10 -10 -10 -10 -10 -10 -9 -9 -9 -9 -9 -9 -8 -9 -10 -9 -9 -9 -9 -8 -8
-12 -13 -12 -12 -12 -12 -12 -11 -11 -11 -12 -13 -12 -13 -12 -12 -13 -13 -13 -13 -13 -13 -13 -12 -11 -10 -12 -10 -11 -11 -10 -10 -10 -9 -9 -9 -9 -9 -8 -10 -10 -10 -9 -9 -9 -8 -8
-12 -13 -13 -12 -12 -12 -12 -11 -11 -11 -12 -12 -12 -12 -12 -12 -12 -13 -13 -13 -13 -13 -13 -13 -12 -11 -11 -12 -11 -11 -10 -9 -9 -9 -9 -9 -9 -9 -9 -8 -9 -9 -9 -9 -9 -8 -8
Height
5833 5834 5835 5837 5838 5840 5842 5844 5846 5848 5850 5852 5855 5856 5858 5860 5862 5865 5867 5869 5871 5872 5874 5876 5877 5878 5879 5879 5880 5881 5883 5886 5888 5891 5895 5896 5900 5902 5903 5905 5904 5904 5905 5905 5905 5904 5903
5828 5829 5831 5832 5834 5835 5837 5839 5841 5844 5846 5848 5850 5852 5854 5856 5859 5861 5863 5866 5868 5870 5872 5873 5875 5876 5877 5878 5880 5880 5883 5885 5888 5891 5893 5897 5901 5903 5905 5906 5906 5905 5905 5905 5906 5906 5905
5823 5825 5826 5827 5829 5831 5833 5835 5837 5839 5841 5844 5846 5848 5850 5853 5855 5857 5860 5862 5864 5866 5868 5870 5872 5874 5875 5875 5877 5878 5881 5884 5887 5889 5893 5898 5902 5904 5905 5907 5909 5907 5906 5906 5907 5906 5906
5817 5819 5820 5822 5824 5826 5828 5830 5832 5835 5837 5839 5842 5844 5846 5849 5851 5854 5856 5858 5860 5863 5865 5867 5869 5871 5872 5874 5875 5876 5879 5883 5886 5889 5894 5899 5902 5904 5904 5907 5908 5909 5909 5907 5908 5907 5909
5812 5813 5814 5816 5819 5821 5823 5825 5827 5830 5833 5835 5838 5840 5843 5845 5848 5850 5852 5855 5857 5859 5861 5863 5866 5869 5871 5871 5873 5875 5878 5881 5884 5889 5894 5898 5901 5903 5904 5907 5908 5908 5909 5909 5911 5911 5912
5806 5807 5809 5811 5813 5815 5817 5820 5822 5825 5828 5831 5833 5836 5839 5841 5844 5846 5849 5851 5854 5855 5857 5859 5863 5867 5869 5868 5870 5873 5875 5877 5882 5887 5891 5897 5900 5902 5902 5907 5907 5908 5909 5910 5911 5912 5913
5802 5803 5804 5806 5807 5809 5812 5814 5817 5819 5823 5826 5829 5832 5835 5838 5840 5843 5845 5848 5852 5855 5855 5857 5859 5862 5864 5865 5868 5871 5873 5875 5879 5884 5888 5894 5898 5901 5902 5905 5907 5908 5908 5910 5912 5912 5913
5798 5798 5800 5801 5802 5804 5806 5808 5811 5814 5817 5821 5824 5827 5830 5833 5836 5839 5842 5846 5848 5850 5852 5854 5856 5860 5862 5863 5866 5868 5872 5874 5876 5881 5885 5892 5897 5899 5902 5904 5907 5909 5909 5911 5911 5912 5914
5794 5794 5795 5796 5797 5799 5801 5803 5806 5809 5813 5816 5819 5823 5826 5829 5832 5836 5839 5841 5843 5846 5848 5852 5854 5857 5860 5863 5863 5867 5869 5872 5874 5878 5884 5890 5897 5898 5900 5904 5906 5909 5910 5911 5911 5911 5913
5790 5790 5791 5791 5793 5794 5796 5799 5801 5804 5807 5811 5814 5818 5821 5825 5830 5831 5835 5837 5840 5841 5845 5849 5850 5854 5858 5859 5860 5863 5865 5868 5871 5877 5882 5889 5893 5894 5896 5902 5905 5907 5909 5909 5911 5912 5912
5788 5788 5788 5788 5789 5790 5792 5794 5797 5799 5802 5806 5810 5813 5817 5821 5824 5827 5831 5833 5836 5839 5842 5846 5848 5851 5854 5857 5858 5860 5861 5863 5868 5874 5879 5886 5889 5891 5897 5902 5904 5907 5905 5908 5909 5910 5910
5786 5786 5785 5785 5786 5787 5788 5790 5792 5795 5798 5802 5805 5809 5812 5816 5820 5823 5826 5829 5833 5838 5839 5842 5844 5847 5850 5853 5855 5855 5857 5860 5864 5869 5875 5883 5886 5890 5897 5900 5902 5905 5906 5907 5907 5907 5908
5783 5783 5783 5783 5783 5783 5785 5786 5788 5791 5795 5798 5801 5805 5809 5813 5817 5819 5823 5827 5831 5833 5836 5838 5840 5843 5846 5849 5851 5853 5855 5857 5860 5865 5871 5879 5885 5891 5896 5897 5895 5900 5903 5905 5907 5906 5907
5779 5779 5780 5780 5780 5781 5782 5783 5786 5788 5791 5795 5798 5802 5806 5810 5813 5816 5819 5824 5827 5829 5831 5834 5838 5840 5844 5846 5848 5850 5852 5854 5858 5864 5871 5877 5885 5889 5895 5896 5895 5892 5899 5902 5904 5905 5905
5776 5776 5777 5777 5777 5778 5779 5781 5783 5785 5788 5792 5795 5799 5803 5806 5810 5813 5818 5821 5823 5826 5828 5831 5834 5837 5841 5844 5846 5848 5851 5854 5857 5863 5870 5876 5882 5887 5892 5893 5895 5896 5898 5902 5901 5902 5902
5775 5775 5775 5774 5774 5775 5776 5778 5780 5783 5786 5788 5792 5795 5799 5802 5806 5810 5815 5818 5820 5823 5826 5828 5832 5836 5838 5842 5845 5847 5850 5854 5858 5863 5870 5876 5882 5886 5889 5891 5892 5894 5897 5898 5898 5899 5899
5774 5774 5774 5773 5773 5774 5775 5776 5778 5780 5782 5785 5788 5792 5795 5798 5802 5806 5811 5815 5816 5818 5822 5826 5830 5834 5836 5839 5842 5845 5849 5853 5857 5861 5866 5873 5880 5885 5886 5888 5889 5890 5891 5895 5895 5896 5896
5773 5773 5773 5772 5772 5773 5774 5774 5775 5777 5779 5782 5784 5788 5791 5795 5800 5803 5807 5809 5810 5813 5818 5823 5828 5831 5834 5837 5841 5845 5848 5851 5855 5860 5865 5872 5878 5881 5884 5885 5886 5888 5890 5892 5892 5893 5892
5771 5771 5771 5771 5771 5771 5772 5773 5774 5775 5777 5778 5780 5783 5787 5790 5794 5798 5802 5805 5808 5812 5817 5822 5825 5830 5833 5836 5842 5846 5848 5851 5853 5860 5866 5871 5876 5879 5882 5884 5885 5886 5887 5888 5888 5889 5888
5768 5768 5769 5769 5769 5769 5770 5770 5771 5772 5773 5775 5777 5779 5782 5785 5789 5793 5798 5802 5806 5809 5815 5819 5823 5827 5831 5835 5840 5844 5847 5850 5854 5858 5865 5869 5873 5877 5880 5882 5882 5882 5883 5884 5885 5884 5884
5766 5766 5766 5766 5767 5767 5767 5767 5768 5768 5769 5771 5772 5774 5778 5781 5785 5788 5793 5797 5802 5807 5812 5817 5821 5824 5827 5832 5837 5842 5846 5850 5854 5858 5861 5864 5868 5873 5876 5877 5877 5879 5880 5880 5880 5880 5879
5763 5763 5763 5763 5764 5764 5765 5765 5764 5765 5765 5765 5766 5769 5772 5775 5779 5784 5789 5792 5798 5804 5809 5816 5819 5822 5825 5831 5836 5841 5844 5848 5852 5855 5859 5861 5865 5869 5871 5874 5874 5873 5874 5874 5874 5874 5875
5758 5759 5759 5759 5760 5760 5761 5762 5761 5761 5761 5761 5762 5764 5767 5771 5775 5780 5784 5789 5794 5798 5805 5811 5816 5819 5822 5828 5833 5837 5842 5846 5851 5853 5856 5859 5862 5865 5867 5869 5869 5869 5869 5869 5869 5869 5870
5753 5754 5754 5755 5756 5756 5757 5758 5758 5758 5758 5759 5759 5761 5764 5768 5772 5776 5781 5785 5790 5794 5799 5805 5810 5815 5820 5824 5829 5833 5838 5842 5847 5850 5853 5855 5859 5863 5865 5866 5865 5866 5865 5865 5864 5865 5866
5747 5748 5749 5750 5752 5752 5753 5754 5754 5755 5755 5756 5757 5759 5761 5765 5769 5773 5778 5781 5786 5790 5794 5799 5805 5811 5816 5821 5824 5828 5833 5837 5841 5845 5849 5853 5857 5859 5860 5861 5862 5862 5861 5862 5862 5861 5861
5741 5742 5744 5745 5747 5748 5749 5751 5752 5752 5753 5754 5755 5756 5759 5763 5767 5771 5774 5779 5782 5784 5791 5796 5800 5805 5812 5817 5819 5823 5828 5833 5838 5841 5845 5849 5852 5855 5855 5854 5856 5858 5857 5856 5855 5857 5856
5735 5736 5738 5740 5742 5744 5745 5747 5749 5750 5750 5751 5752 5754 5757 5759 5764 5768 5772 5776 5779 5782 5785 5789 5796 5801 5805 5807 5812 5817 5824 5829 5832 5837 5842 5843 5845 5847 5846 5845 5849 5852 5852 5850 5851 5853 5849
5729 5731 5732 5734 5736 5739 5741 5743 5745 5747 5748 5748 5750 5751 5754 5757 5760 5765 5769 5773 5776 5779 5784 5787 5790 5793 5800 5802 5807 5815 5820 5825 5829 5832 5835 5837 5839 5840 5840 5838 5842 5846 5847 5847 5846 5844 5843
5724 5725 5727 5729 5731 5734 5736 5738 5741 5743 5745 5746 5747 5748 5750 5754 5757 5761 5766 5770 5773 5776 5781 5785 5791 5792 5796 5799 5804 5809 5815 5819 5824 5828 5831 5832 5834 5833 5836 5838 5838 5840 5842 5841 5839 5837 5836
Wind_Speed
24 25 24 24 24 24 25 25 25 25 25 25 23 22 21 20 21 21 20 19 18 17 15 15 13 13 11 11 13 15 19 21 22 22 23 17 12 6 8 7 12 15 11 12 6 7 11
24 25 26 25 25 25 25 25 25 25 25 25 25 24 22 22 22 21 21 20 19 18 16 17 15 13 13 14 11 15 19 24 25 21 21 17 11 9 9 8 12 16 12 13 9 6 11
23 25 26 26 26 26 26 26 25 26 25 25 26 25 24 23 23 22 21 20 19 18 18 18 16 15 14 14 10 15 22 27 29 25 24 16 11 10 12 11 6 10 13 15 9 9 13
23 23 25 25 26 27 26 26 27 26 26 25 26 26 25 24 23 23 23 21 20 19 18 19 17 15 13 9 11 17 22 28 33 25 19 14 11 13 15 14 8 9 11 17 14 9 13
23 23 24 25 25 27 27 27 27 27 27 26 26 25 25 24 23 23 22 22 20 20 19 19 18 14 11 13 13 17 22 30 31 26 17 17 14 17 18 13 8 11 14 16 19 17 11
21 22 23 24 25 26 26 27 27 27 28 27 27 26 26 24 23 22 22 21 20 20 20 20 18 15 12 14 13 12 21 28 29 26 22 24 18 16 19 11 11 11 14 12 15 15 14
18 19 21 24 25 24 25 26 27 27 28 28 27 27 26 25 24 23 22 21 20 19 19 20 21 20 16 17 12 11 17 22 28 28 29 27 20 20 18 14 9 10 14 10 10 15 15
16 17 17 20 23 24 24 25 26 27 27 28 27 28 28 27 25 24 22 20 19 19 20 22 22 17 17 17 13 13 14 21 28 30 31 30 23 20 19 16 14 11 9 6 3 8 11
15 16 16 17 19 22 24 24 25 26 27 27 27 27 28 27 27 24 22 21 20 20 22 22 21 18 15 16 16 13 16 18 23 30 31 29 24 25 24 20 18 13 9 5 7 4 3
9 12 15 16 18 20 22 24 24 24 25 27 27 27 27 27 26 25 23 22 20 20 21 19 22 21 18 17 16 14 16 22 25 27 30 29 27 31 32 23 19 18 12 6 8 7 4
8 10 12 15 16 18 20 22 23 22 23 25 26 26 26 27 25 23 23 22 22 19 18 19 19 19 19 17 17 15 19 22 23 29 32 29 33 33 25 24 22 15 15 10 11 9 8
11 10 11 13 14 15 17 19 20 21 21 23 24 24 25 24 23 23 22 22 22 19 17 16 18 18 18 17 15 17 20 21 25 31 32 32 34 32 21 25 26 26 19 16 11 11 11
16 14 12 12 13 13 14 16 19 20 20 20 22 23 23 22 19 19 21 20 20 19 20 20 20 19 19 17 14 14 17 22 28 34 35 34 36 29 24 21 30 28 24 18 17 13 7
15 15 14 13 12 13 13 14 16 18 20 20 22 23 23 21 19 17 16 19 19 22 22 22 20 21 18 17 15 13 15 24 30 33 31 34 36 33 25 19 23 28 21 20 17 14 9
8 11 12 13 14 14 13 13 14 16 18 21 22 24 23 22 21 19 16 17 22 22 22 22 23 22 20 18 16 14 15 20 26 27 27 30 30 25 32 21 21 21 25 20 18 18 16
7 6 6 5 7 12 14 13 15 16 18 20 22 24 24 24 23 23 20 21 25 27 24 24 24 24 21 17 15 16 17 19 21 23 23 24 18 19 20 20 19 22 26 25 22 22 21
6 5 5 5 6 6 8 11 14 17 18 19 21 23 23 24 21 22 20 24 28 32 30 26 24 24 22 20 20 19 19 17 20 26 28 25 22 23 20 16 15 13 20 25 24 23 23
8 8 7 7 6 6 9 7 11 13 16 19 21 23 25 24 22 19 22 28 36 36 36 29 28 27 26 24 22 22 21 19 15 22 29 31 26 24 21 21 19 15 15 25 27 27 26
10 9 9 9 8 8 8 8 10 13 13 15 19 23 25 26 26 25 24 31 38 38 37 32 29 29 31 29 23 23 21 23 21 18 30 26 26 22 19 23 21 18 20 22 22 24 25
9 10 11 10 9 10 10 11 11 11 12 15 18 20 23 27 27 26 27 34 38 41 40 35 31 30 31 30 26 26 26 33 34 32 27 24 23 20 14 12 15 14 13 17 18 23 28
12 11 11 12 11 10 9 10 12 14 15 18 20 22 22 25 26 25 28 33 40 41 40 40 35 33 34 32 31 33 31 36 30 26 26 27 23 17 16 16 16 20 23 22 22 19 17
15 14 14 13 13 13 11 11 11 13 17 17 19 23 26 27 27 26 28 33 35 46 42 36 37 33 33 33 34 34 31 32 31 25 22 24 19 17 16 15 19 19 19 21 26 23 22
17 16 15 14 13 14 13 12 12 13 13 13 15 21 25 26 25 25 28 31 34 42 43 36 38 34 30 31 32 31 29 30 27 26 20 19 16 16 19 23 20 23 25 24 17 18 22
20 20 17 17 14 14 13 12 12 12 11 12 15 19 23 25 23 24 27 30 31 34 49 45 47 37 34 30 25 31 27 24 24 20 20 16 16 21 26 27 26 25 24 17 15 15 15
20 19 19 18 17 14 13 10 11 11 11 11 14 18 22 24 25 26 27 25 26 30 39 44 43 36 30 28 29 25 25 23 23 25 25 24 24 26 29 30 30 26 21 15 17 21 23
21 19 20 19 18 16 14 11 9 11 12 12 14 18 21 21 24 26 28 26 25 30 34 32 42 38 32 29 28 28 28 27 29 29 31 30 30 28 29 32 33 23 22 22 26 24 24
20 19 20 19 19 18 16 13 10 10 11 14 14 17 19 19 24 25 27 25 24 27 24 28 30 41 39 29 26 19 27 25 23 22 23 23 23 25 31 28 28 21 19 18 18 20 24
20 19 19 20 19 19 19 16 13 10 11 13 16 17 19 17 19 24 23 23 27 26 22 17 18 34 48 22 16 18 21 25 28 28 28 31 27 30 28 28 28 23 19 19 19 19 21
19 18 19 20 20 20 20 19 17 13 10 13 15 17 17 19 18 24 24 23 24 27 25 20 14 20 23 28 20 17 19 22 29 36 33 30 31 26 25 16 14 17 19 17 20 22 24
Wind_Direction
247 244 240 235 235 233 233 232 231 231 232 229 229 231 231 228 227 227 230 233 236 238 236 238 243 244 245 243 234 234 225 208 192 201 202 215 208 171 196 170 132 99 83 77 106 85 64
250 247 243 239 235 233 233 233 233 232 231 232 231 230 232 230 229 228 229 231 233 231 230 230 235 239 235 237 236 225 222 206 208 203 202 215 205 200 234 212 136 124 94 71 93 101 67
249 247 245 242 238 235 233 232 233 233 232 232 233 231 231 232 231 230 229 231 231 229 229 224 229 236 231 244 227 218 212 205 205 214 214 212 214 220 231 221 152 133 93 65 64 76 67
249 245 245 243 242 239 236 233 233 233 232 233 233 232 230 231 232 232 231 230 229 230 232 226 226 235 234 246 224 207 211 206 208 222 216 210 206 202 224 253 235 150 116 80 54 66 69
253 247 242 242 243 241 239 236 233 232 233 231 232 232 231 230 231 232 233 231 229 228 230 227 225 232 230 226 220 211 207 208 213 218 207 196 203 223 237 232 208 156 125 100 76 64 76
255 250 245 241 239 240 240 238 236 234 233 231 231 231 232 230 230 230 232 232 230 228 230 224 223 224 221 236 241 239 213 212 213 211 200 196 194 209 221 199 181 149 140 118 97 78 67
255 251 248 244 240 237 237 238 237 235 234 233 231 231 231 231 231 231 230 232 232 231 225 219 221 220 218 229 224 228 231 224 213 204 199 207 206 203 207 208 201 176 158 131 96 92 81
255 252 249 247 241 240 236 235 236 235 234 234 232 231 232 230 231 231 232 232 233 227 219 219 228 226 223 230 219 219 225 232 219 207 203 208 209 204 207 216 230 193 166 145 104 93 107
261 257 256 250 247 241 238 235 234 233 233 233 232 231 231 230 230 231 230 229 228 225 221 220 226 226 222 230 238 220 227 226 231 217 205 203 201 214 218 221 217 194 168 207 243 224 137
275 265 258 257 251 246 239 236 233 232 230 229 230 229 230 231 229 229 228 227 225 223 223 222 225 223 217 221 229 230 221 217 219 220 208 202 203 211 210 218 205 207 193 219 217 231 267
296 281 270 260 253 245 240 234 233 229 227 225 226 226 228 230 228 228 226 225 224 222 222 221 220 219 219 224 231 226 217 214 207 212 210 201 202 205 210 216 220 229 195 200 220 240 257
285 283 274 263 253 243 238 232 231 229 224 222 222 222 224 225 226 225 223 221 221 218 217 216 214 207 213 217 219 223 219 207 203 201 205 205 208 210 209 221 235 227 208 220 232 248 268
273 269 268 264 255 247 239 233 228 227 223 218 215 214 213 213 213 217 218 217 213 210 211 211 205 201 208 211 211 215 216 197 197 196 201 206 203 206 204 237 199 205 214 211 229 255 283
270 263 264 262 259 250 242 235 229 223 220 217 209 209 208 210 212 211 208 205 204 209 209 208 206 203 200 199 195 200 217 198 193 200 203 204 206 219 210 247 220 204 204 224 232 254 231
281 265 263 261 257 250 242 235 229 224 217 217 214 214 213 215 217 215 208 189 200 203 202 204 200 198 196 193 185 185 196 202 197 200 201 204 210 213 207 225 229 248 215 226 237 239 243
296 282 277 277 263 244 242 238 229 226 221 217 216 219 218 221 220 219 212 191 195 189 187 198 200 200 186 178 176 181 186 188 193 193 192 201 196 211 222 227 224 235 231 225 236 248 256
298 283 280 279 278 258 235 234 231 229 226 223 221 220 215 216 218 218 207 195 194 193 191 196 198 199 184 175 178 180 178 184 194 192 181 179 182 197 211 221 229 243 227 218 237 243 260
283 279 276 276 266 248 249 258 233 231 228 228 227 223 218 220 217 210 198 196 200 199 194 194 197 193 176 180 189 185 182 179 189 200 187 173 186 201 213 218 214 229 229 227 242 255 263
285 271 264 264 266 259 256 250 230 236 236 234 230 227 221 222 222 218 205 202 203 204 194 194 196 191 186 179 186 188 182 171 159 168 171 180 193 206 218 226 232 228 240 247 254 262 271
279 278 268 264 267 266 261 253 244 241 238 236 234 234 225 222 220 222 206 205 201 211 202 198 197 194 192 183 181 169 170 169 165 169 179 193 211 222 237 259 260 281 271 249 270 281 268
279 272 268 264 271 264 262 260 250 250 249 248 239 232 223 219 218 217 204 207 205 208 216 206 201 195 194 184 179 167 170 178 181 181 195 206 217 229 238 260 282 276 267 264 270 282 282
274 278 265 262 264 268 266 267 265 256 263 252 235 226 217 215 216 215 206 210 210 212 210 213 208 203 197 186 179 179 183 189 186 188 203 219 212 230 238 265 271 275 281 274 283 275 283
270 272 270 257 258 268 266 262 269 264 256 242 227 220 219 216 212 213 208 210 215 211 212 204 211 211 211 198 194 192 192 194 204 204 207 215 224 234 247 277 274 287 302 295 287 277 274
271 263 260 259 251 263 269 262 258 263 246 236 225 219 217 216 212 212 206 212 219 211 216 207 207 210 208 204 207 210 208 204 207 221 229 242 238 237 251 267 276 289 286 286 279 269 278
270 263 253 254 247 254 265 264 252 259 240 229 225 223 218 210 211 211 209 217 223 226 223 229 207 206 204 202 206 198 209 207 216 226 227 233 251 261 267 273 279 285 277 260 259 266 276
268 260 248 250 251 243 253 256 254 249 240 230 225 224 223 221 219 211 214 219 225 236 229 219 224 194 204 209 206 200 206 209 215 220 231 242 250 258 267 280 269 271 263 261 259 265 271
261 258 244 245 245 242 240 245 249 246 241 230 228 225 224 227 216 206 212 215 219 225 237 238 234 223 197 198 204 205 219 210 229 239 249 260 271 267 280 267 260 254 263 266 277 274 271
260 253 242 239 242 242 236 237 241 245 238 236 228 229 227 231 220 201 206 214 217 217 219 225 237 235 236 215 216 220 232 236 236 249 260 267 277 272 285 264 236 238 260 268 274 272 278
257 249 242 236 238 242 239 235 236 238 236 236 235 231 233 222 223 211 209 210 221 225 221 219 207 213 214 245 236 234 232 233 243 249 258 267 259 266 257 245 227 243 268 278 287 289 288